www.pogodaiklimat.ru

Погода и климат >> Архив погоды >> Финляндия >> Муонио Аламуонио


ПОГОДА в Муонио Аламуонио

  • Прогноз погоды в Муонио Аламуонио
  • Монитор погоды в Муонио Аламуонио

АРХИВ ПОГОДЫ в Муонио Аламуонио

Время (UTC), дата Ветер
(напр.,м/с)
 
Видим.   Явления Облачность Т
(С)
Тd
(С)
f
(%)
Тe
(С)
Тes
(С)
Комфортность P
(гПа)
Po
(гПа)
Тmin
(С)
Tmax
(С)
R
(мм)
R24
(мм)
S
(см)
01 9.09 Ю 4 50 км 9/9
[]
+7.3 +6.1 92 +4 +4 1023.6 994.4
02 9.09 Ю 3 50 км 9/9
[]
+7.3 +5.8 90 +4 +4 1023.7 994.5
03 9.09 Ю 4 50 км 10/10
[]
+7.0 +5.4 90 +3 +3 1023.8 994.5
04 9.09 Ю 3 50 км 10/10
[]
+6.7 +5.2 90 +4 +4 1023.9 994.6
05 9.09 Ю 2 50 км 5/3
[]
+7.0 +5.3 89 +5 +5 1023.9 994.7
06 9.09 Ю 3 45 км ясно +8.1 +5.3 82 +5 +6 1024.1 994.9 +6.6 +10.0
07 9.09 ЮЗ 2 40 км 9/0
[]
+9.7 +5.6 76 +8 +9 1023.8 994.9
08 9.09 З 1 40 км 9/0
[]
+11.0 +6.1 72 +11 +13 1023.8 994.9
09 9.09 ЮЗ 3 40 км 5/0
[]
+12.8 +5.4 61 +12 +14 1023.4 994.8
10 9.09 ЮЗ 3 50 км 9/0
[]
+13.4 +5.2 58 +12 +14 1023.3 994.7
11 9.09 Ю 4 45 км 9/0
[]
+13.7 +5.6 58 +12 +14 1023.3 994.8
12 9.09 Ю 4 50 км 9/0
[]
+14.1 +5.3 55 +13 +14 1023.3 994.8
13 9.09 Ю 4 45 км 9/0
[]
+14.6 +4.6 51 +14 +15 1023.0 994.5
14 9.09 Ю 2 50 км 9/0
[]
+14.5 +5.7 55 +14 +15 1022.9 994.5
15 9.09 Ю 4 50 км 9/0
[]
+14.2 +4.3 51 +13 +13 1023.0 994.5
16 9.09 Ю 2 35 км 10/0
[]
+13.5 +5.7 59 +13 +13 1023.0 994.4
17 9.09 ЮВ 2 35 км 10/0
[]
+12.2 +5.9 65 +11 +11 1023.1 994.4
18 9.09 ЮВ 2 45 км 9/0
[]
+10.6 +5.8 72 +9 +9 1023.5 994.6 +8.0 +15.2
19 9.09 ЮВ 2 50 км 9/0
[]
+10.0 +5.5 74 +9 +9 1023.6 994.7
20 9.09 Ю 3 50 км 9/0
[]
+9.1 +5.2 77 +7 +7 1023.7 994.7
21 9.09 Ю 3 50 км 9/0
[]
+9.1 +5.3 77 +7 +7 1023.9 994.9
22 9.09 ЮВ 2 45 км 5/0
[]
+8.5 +5.3 80 +7 +7 1023.8 994.7
23 9.09 Ю 3 50 км 10/0
[]
+7.3 +5.3 87 +4 +4 1023.9 994.7
00 10.09 ЮВ 2 35 км 9/0
[]
+7.5 +5.3 86 +5 +5 1023.7 994.5
01 10.09 ЮВ 2 30 км 8/0
[]
+6.8 +5.3 90 +4 +4 1023.6 994.3
02 10.09 Ю 3 50 км 9/0
[]
+7.1 +5.5 90 +4 +4 1023.4 994.2
03 10.09 Ю 2 45 км 4/0
[]
+6.3 +5.2 93 +4 +4 1023.0 993.8
04 10.09 Ю 1 50 км ясно +5.3 +4.7 96 +4 +4 1023.1 993.7
05 10.09 Ю 3 50 км ясно +6.1 +5.1 93 +3 +3 1023.0 993.7
06 10.09 Ю 3 50 км ясно +8.5 +5.3 80 +6 +7 1022.5 993.4 +5.2 +10.6
07 10.09 Ю 3 45 км 3/3 300 м
[]
+9.8 +5.5 75 +8 +9 1022.5 993.5
08 10.09 Ю 2 40 км 4/4 600 м
[]
+11.2 +7.0 75 +10 +12 1022.0 993.3
09 10.09 Ю 3 30 км 9/9 300 м
[]
+13.9 +9.9 77 +13 +13 1021.2 992.8
10 10.09 Ю 4 45 км 9/9 300 м
[]
+13.7 +10.2 79 +12 +12 1020.9 992.5
11 10.09 Ю 6 40 км 10/10 300 м
[]
+13.6 +10.4 81 +11 +11 1020.8 992.3
12 10.09 Ю 5 40 км 9/8 300 м
[]
+13.5 +10.7 83 +12 +12 1020.6 992.1
13 10.09 Ю 5 30 км 10/10 200 м
[]
+12.4 +10.4 88 +10 +10 1020.7 992.1
14 10.09 Ю 4 35 км 10/10 200 м
[]
+12.6 +10.8 89 +11 +11 1020.2 991.7
15 10.09 Ю 3 13 км 10/10 100 м
[]
+12.2 +11.2 94 +11 +11 1020.0 991.4
16 10.09 Ю 4 25 км 10/10 100 м
[]
+12.4 +11.3 93 +10 +10 1019.3 990.8
17 10.09 Ю 4 6000 м дымка 10/10 200 м
[]
+12.2 +11.6 96 +10 +10 1018.9 990.3
18 10.09 Ю 4 25 км 10/10 200 м
[]
+12.3 +11.2 93 +10 +10 1018.2 989.6 +8.5 +14.8
19 10.09 Ю 5 24 км 10/10 100 м
[]
+12.3 +11.4 94 +10 +10 1017.7 989.2
20 10.09 Ю 5 26 км 10/10 100 м
[]
+12.4 +11.5 94 +10 +10 1017.3 988.8
21 10.09 Ю 5 5000 м дымка 10/10 100 м
[]
+12.1 +11.7 97 +10 +10 1016.9 988.4
22 10.09 Ю 4 5000 м дымка 10/10 50 м
[]
+12.2 +11.9 98 +10 +10 1016.7 988.2
23 10.09 Ю 4 4000 м дымка 10/10 50 м
[]
+12.2 +12.0 99 +10 +10 1016.4 987.9
00 11.09 Ю 3 13 км 10/10 100 м
[]
+12.5 +12.1 97 +11 +11 1015.8 987.3
01 11.09 Ю 3 29 км 10/10 100 м
[]
+12.7 +11.9 95 +11 +11 1015.4 987.0
02 11.09 Ю 4 7000 м слаб. дождь 10/10 100 м
[]
+12.6 +12.1 97 +11 +11 1014.7 986.3
03 11.09 Ю 3 18 км 10/10 200 м
[]
+12.8 +12.0 95 +11 +11 1014.4 986.0
04 11.09 Ю 3 4400 м морось 10/10 100 м
[]
+12.7 +12.3 97 +11 +11 1014.2 985.8
05 11.09 Ю 4 12 км в посл. час морось 10/10 100 м
[]
+13.1 +12.7 97 +11 +11 1013.3 985.0
06 11.09 Ю 4 14 км 10/10 100 м
[]
+13.7 +13.0 96 +12 +12 1013.1 984.8 +12.1 +13.7
07 11.09 Ю 4 8000 м дымка 10/10 200 м
[]
+14.0 +13.0 94 +12 +12 1012.6 984.4
08 11.09 Ю 4 4600 м слаб. дождь 10/10 100 м
[]
+13.7 +13.0 96 +12 +12 1012.6 984.3
09 11.09 Ю 5 25 км в посл. час морось 10/10 200 м
[]
+14.0 +12.8 92 +12 +12 1012.3 984.0
10 11.09 ЮВ 3 30 км 10/10 300 м
[]
+14.5 +12.5 88 +14 +14 1011.7 983.6
11 11.09 ЮВ 3 40 км 10/10 300 м
[]
+14.8 +12.7 87 +14 +14 1011.1 983.0
12 11.09 ЮВ 4 11 км 10/10 200 м
[]
+14.7 +13.2 91 +13 +13 1010.2 982.1
13 11.09 ЮВ 3 20 км 9/9 300 м
[]
+15.7 +12.9 83 +15 +15 1009.3 981.3
14 11.09 ЮВ 4 27 км 5/5 300 м
[]
+16.6 +12.7 78 +16 +17 1008.2 980.4
15 11.09 ЮВ 3 26 км 6/4 600 м
[]
+16.7 +12.6 77 +16 +17 1007.1 979.3
16 11.09 ЮВ 2 25 км 4/3 600 м
[]
+16.1 +12.6 80 +16 +16 1006.4 978.5
17 11.09 Ю 1 23 км 4/4 600 м
[]
+15.2 +12.1 82 +16 +16 1005.8 977.9
18 11.09 ЮВ 3 20 км ясно +13.7 +12.0 89 +12 +12 1005.4 977.4 +12.1 +17.3
19 11.09 ЮВ 2 18 км 5/5 1500 м
[]
+13.3 +12.0 92 +13 +13 1004.9 976.8
20 11.09 ЮВ 4 23 км 10/10 1500 м
[]
+14.0 +11.9 87 +13 +13 1004.2 976.3
21 11.09 Ю 3 23 км в посл. час морось 10/10 200 м
[]
+13.6 +12.3 92 +12 +12 1003.7 975.7
22 11.09 Ю 4 26 км 10/10 200 м
[]
+13.5 +12.0 91 +12 +12 1003.4 975.4
23 11.09 ЮВ 4 20 км в посл. час дождь 10/10 200 м
[]
+12.9 +12.1 95 +11 +11 1002.9 974.8
00 12.09 ЮВ 4 8000 м морось 10/10 200 м
[]
+12.9 +11.9 94 +11 +11 1002.4 974.3
01 12.09 Ю 3 13 км слаб. ливневой дождь 10/10 200 м
[]
+12.7 +12.0 96 +11 +11 1002.0 974.0
02 12.09 ЮВ 3 6000 м слаб. ливневой дождь 10/10 100 м
[]
+12.6 +12.1 97 +11 +11 1001.5 973.5
03 12.09 ЮВ 3 13 км слаб. ливневой дождь 10/10 200 м
[]
+12.5 +12.0 97 +11 +11 1000.9 972.9
04 12.09 ЮВ 3 6000 м ливневой дождь 10/10 100 м
[]
+12.4 +12.0 97 +11 +11 1000.4 972.4
05 12.09 Ю 3 45 км ливневой дождь 10/10 200 м
[]
+12.5 +12.0 97 +11 +11 1000.1 972.0
06 12.09 Ю 3 45 км 10/10 200 м
[]
+12.8 +11.8 94 +11 +11 999.5 971.5 +12.4 +14.1 0.9
07 12.09 Ю 4 13 км слаб. ливневой дождь 10/10 200 м
[]
+12.8 +11.6 92 +11 +11 999.3 971.3
08 12.09 ЮВ 4 45 км в посл. час морось 9/9 200 м
[]
+13.3 +11.7 90 +12 +12 998.7 970.8
09 12.09 ЮВ 4 24 км слаб. дождь 10/10 300 м
[]
+13.2 +11.7 91 +11 +11 998.1 970.2
10 12.09 ЮВ 4 18 км слаб. ливневой дождь 10/10 200 м
[]
+13.3 +12.0 92 +12 +12 997.5 969.7
11 12.09 Ю 3 45 км в посл. час дождь 9/9 200 м
[]
+13.2 +12.5 96 +12 +12 997.2 969.4
12 12.09 Ю 4 17 км слаб. ливневой дождь 10/10 300 м
[]
+13.1 +11.9 92 +11 +11 996.8 968.9
13 12.09 ЮВ 2 45 км слаб. дождь 10/10 300 м
[]
+13.0 +12.0 94 +12 +12 996.4 968.5
14 12.09 Ю 2 35 км слаб. ливневой дождь 10/10 1000 м
[]
+12.3 +11.7 96 +11 +11 995.8 967.9
15 12.09 Ю 3 35 км слаб. ливневой дождь 9/9 300 м
[]
+12.6 +11.7 94 +11 +11 995.6 967.8
16 12.09 З 3 28 км слаб. ливневой дождь 10/10 200 м
[]
+12.1 +10.8 92 +10 +10 995.9 967.9
17 12.09 З 2 50 км слаб. ливневой дождь 10/10 300 м
[]
+11.4 +10.2 92 +10 +10 996.5 968.4
18 12.09 ЮЗ 3 50 км 10/10 1500 м
[]
+10.4 +8.9 90 +8 +8 997.0 968.9 +10.2 +13.5 3
19 12.09 ЮЗ 2 50 км 9/9 1500 м
[]
+9.8 +8.7 93 +8 +8 997.1 968.9
20 12.09 ЮЗ 2 13 км ливневой дождь 10/10 1500 м
[]
+10.0 +9.0 93 +8 +8 997.3 969.1
21 12.09 ЮЗ 1 50 км слаб. морось 10/10 1500 м
[]
+9.4 +8.9 97 +9 +9 997.5 969.2
22 12.09 ЮВ 1 35 км 4/3 1500 м
[]
+8.1 +7.9 99 +7 +7 997.6 969.3
23 12.09 ЮЗ 1 40 км 9/3 1000 м
[]
+7.7 +7.4 98 +7 +7 997.7 969.3
00 13.09 ЮЗ 1 50 км 9/9 1000 м
[]
+8.0 +7.2 95 +7 +7 997.9 969.5
01 13.09 З 1 50 км 9/8 1000 м
[]
+7.7 +6.7 93 +7 +7 998.0 969.6
02 13.09 З 2 50 км 10/10 2000 м
[]
+7.0 +6.0 93 +5 +5 997.9 969.4
03 13.09 Ю 1 45 км 9/8 1500 м
[]
+5.4 +5.1 98 +4 +4 998.1 969.4
04 13.09 В 1 30 км 9/1 1500 м
[]
+4.8 +4.5 98 +3 +3 998.2 969.5
05 13.09 штиль 0 35 км 5/5
[]
+4.9 +4.7 99 +4 +4 998.3 969.6
06 13.09 ЮЗ 1 45 км 9/9
[]
+6.9 +5.0 88 +6 +6 998.4 969.8 +4.7 +10.4 0.9
07 13.09 З 1 45 км 6/6
[]
+8.2 +4.9 80 +8 +8 998.3 969.9
08 13.09 СЗ 2 45 км 9/6 300 м
[]
+8.5 +5.9 84 +7 +7 998.6 970.3
09 13.09 С 2 11 км слаб. дождь 10/10 300 м
[]
+8.7 +6.5 86 +7 +7 999.2 970.8
10 13.09 СЗ 1 50 км 5/5 300 м
[]
+9.7 +6.1 78 +9 +11 999.1 970.9
11 13.09 СЗ 2 30 км слаб. дождь 9/6 1000 м
[]
+10.2 +5.6 73 +9 +10 999.6 971.4
12 13.09 З 1 50 км 9/3 1000 м
[]
+11.1 +5.9 70 +11 +13 999.7 971.6
13 13.09 З 1 50 км 9/4 1000 м
[]
+11.0 +5.4 68 +11 +12 1000.0 971.9
14 13.09 З 3 45 км 9/1 1000 м
[]
+10.5 +4.8 68 +9 +9 1000.4 972.2
15 13.09 СЗ 3 50 км 4/4 1000 м
[]
+10.9 +3.8 62 +9 +10 1000.9 972.7
16 13.09 СЗ 1 35 км слаб. дождь 9/9 1000 м
[]
+8.2 +5.6 84 +7 +7 1001.7 973.2
17 13.09 С 3 40 км слаб. ливневой дождь 9/9 1000 м
[]
+8.0 +5.2 82 +5 +5 1002.5 974.0
18 13.09 С 2 50 км ливневой дождь 9/9 600 м
[]
+7.1 +4.6 84 +5 +5 1003.5 974.9 +6.9 +11.3 2
19 13.09 СЗ 3 30 км слаб. ливневой дождь 9/9 1000 м
[]
+6.6 +4.7 88 +3 +3 1004.1 975.3
20 13.09 СЗ 3 50 км 1/1 600 м
[]
+5.7 +3.2 84 +2 +2 1004.8 975.9
21 13.09 СЗ 1 50 км ясно +2.7 +2.2 97 +1 +1 1005.9 976.7
22 13.09 З 1 40 км ясно +1.8 +1.5 98 -0 -0 1006.4 977.1
23 13.09 СЗ 2 45 км ясно +1.8 +1.4 97 -2 -2 1006.8 977.5
00 14.09 СЗ 1 6000 м дымка 3/3
[]
+0.2 -0.1 98 -2 -2 1007.3 977.8
01 14.09 В 1 35 км 9/9
[]
+0.4 +0.2 99 -2 -2 1007.5 978.0
02 14.09 В 1 35 км 9/9
[]
+0.2 -0.1 98 -2 -2 1007.9 978.4
03 14.09 штиль 0 16 км 10/10
[]
+0.1 -0.1 99 -1 -1 1008.3 978.8
04 14.09 ЮВ 1 30 км 1/1
[]
0.0 -0.2 99 -2 -2 1008.4 978.9
05 14.09 СВ 1 17 км 4/4
[]
-0.1 -0.3 99 -2 -2 1008.6 979.1
07 14.09 ЮВ 1 40 км ясно +4.5 +2.2 85 +3 +5 1008.6 979.6
09 14.09 З 1 45 км ясно +7.7 +2.9 72 +7 +11 1008.5 979.8
10 14.09 Ю 1 35 км ясно +8.7 +2.6 66 +8 +12 1008.4 979.8
11 14.09 ЮВ 2 40 км 1/1 600 м
[]
+10.0 +1.8 57 +9 +12 1008.3 979.8
12 14.09 Ю 3 45 км 10/10 1000 м
[]
+10.1 +1.3 54 +8 +8 1008.3 979.8
13 14.09 Ю 4 35 км 9/9 1500 м
[]
+10.3 +0.9 52 +8 +8 1008.3 979.8
14 14.09 ЮЗ 1 45 км ясно +10.2 +0.5 51 +10 +12 1008.2 979.7
15 14.09 ЮЗ 3 40 км 9/9 2000 м
[]
+8.9 +1.0 58 +7 +7 1008.3 979.7
16 14.09 Ю 2 50 км 4/4 2000 м
[]
+8.3 +1.1 60 +7 +7 1008.0 979.4
17 14.09 ЮВ 2 50 км ясно +5.8 +1.8 75 +4 +4 1007.8 978.9
18 14.09 ЮВ 2 50 км ясно +3.0 +1.7 91 -0 -0 1007.7 978.5 +2.2 +11.1
19 14.09 ЮВ 2 50 км ясно +2.4 +1.2 92 -1 -1 1007.4 978.2
20 14.09 Ю 2 50 км ясно +3.5 +0.7 82 +1 +1 1007.2 978.0
21 14.09 ЮВ 1 45 км ясно +0.5 -0.2 95 -2 -2 1006.7 977.2
22 14.09 В 1 50 км ясно +0.5 0.0 96 -2 -2 1005.9 976.5
23 14.09 ЮВ 2 50 км 9/9 1000 м
[]
+2.1 +1.2 94 -1 -1 1005.5 976.3
00 15.09 ЮВ 2 50 км 1/1 2000 м
[]
+2.9 +0.8 86 -0 -0 1004.8 975.6
01 15.09 ЮВ 2 50 км ясно +2.2 +0.3 87 -1 -1 1004.0 974.8
02 15.09 СВ 2 50 км ясно -0.2 -0.8 96 -4 -4 1003.1 973.8
03 15.09 В 3 50 км ясно +1.9 +0.9 93 -3 -3 1002.2 973.1
04 15.09 В 3 50 км ясно +2.1 +0.7 90 -2 -2 1001.6 972.4
05 15.09 В 4 50 км 8/1 600 м
[]
+2.8 +1.4 90 -2 -2 1000.7 971.6
06 15.09 В 4 45 км 3/3 600 м
[]
+3.8 +1.8 87 -1 -0 999.6 970.7 -0.5 +3.8
07 15.09 В 4 50 км 9/9 1000 м
[]
+4.4 +2.7 89 0 0 998.9 970.1
08 15.09 В 5 40 км 10/10 1000 м
[]
+6.1 +2.7 79 +2 +2 998.2 969.5
09 15.09 В 5 35 км 9/9 300 м
[]
+7.1 +3.1 76 +3 +3 997.4 968.9
10 15.09 В 5 50 км слаб. ливневой дождь 9/9 300 м
[]
+7.0 +3.6 79 +3 +3 997.1 968.6
11 15.09 В 5 50 км 9/9 300 м
[]
+7.6 +3.5 75 +4 +4 996.9 968.4
12 15.09 В 5 50 км 9/9 600 м
[]
+7.7 +3.1 73 +4 +4 996.6 968.2
13 15.09 В 6 50 км 8/8 600 м
[]
+8.2 +2.7 68 +4 +5 996.3 967.9
14 15.09 В 5 50 км в посл. час дождь 5/5 600 м
[]
+8.1 +1.3 62 +5 +5 996.1 967.7
15 15.09 В 3 50 км 4/4 1000 м
[]
+7.7 +0.9 62 +5 +6 995.9 967.5
16 15.09 В 3 50 км 8/8 1000 м
[]
+7.5 +0.7 62 +5 +5 995.9 967.5
17 15.09 СВ 2 50 км 9/9
[]
+6.0 +0.6 68 +4 +4 996.2 967.6
18 15.09 СВ 2 45 км 6/5
[]
+3.0 -0.3 79 0 0 996.6 967.7 +3.0 +8.6
19 15.09 СВ 2 50 км ясно +2.1 -0.5 83 -1 -1 997.0 968.0
20 15.09 С 3 50 км ясно +1.5 -0.6 86 -3 -3 997.2 968.2
21 15.09 С 2 45 км 4/0
[]
-0.7 -1.4 95 -5 -5 997.5 968.2
22 15.09 СЗ 2 40 км 9/0
[]
-0.2 -1.4 92 -4 -4 997.7 968.4
23 15.09 СЗ 1 35 км 5/0
[]
-1.8 -2.3 96 -4 -4 998.0 968.6

 

Местоположение метеостанции Муонио Аламуонио (Финляндия): широта 67.99 долгота 23.68 высота над уровнем моря 236 м.

В архиве по умолчанию представлена погода в Муонио Аламуонио за последнюю неделю. Архивные данные за месяц целиком и за предыдущие месяцы, начиная с января 2011 года, Вы можете получить, выбрав интересующий диапазон дат из раскрывающегося списка и нажав кнопку "Ввод!".


*Определитесь, кто Вы:
робот инопланетянин человек

Внимание! Время в таблицах - всемирное. Для получения местного времени необходимо прибавить поправку, которая равна 1 ч.

Смотрите также архив погоды в соседних городах и на ближайших метеорологических станциях:

Погода в Муонио Лаукукеро (Финляндия) (17 км)
Погода в Муонио Саммалтунтури (Финляндия) (18 км)
Погода в Киттиля Ломполонвуома (Финляндия) (22 км)
Погода в Киттила Кенттарова (Финляндия) (23 км)
Погода в Киттила Маторова (Финляндия) (23 км)
Погода в Паркаломполо (Швеция) (46 км)
Погода в Киттила Левитунтури (Финляндия) (54 км)
Погода в Киттиля (Финляндия) (59 км)
Погода в Киттиля (Финляндия) (64 км)
Погода в Наккала (Финляндия) (68 км)

Пояснения к столбцам:

Ветер - указаны скорость ветра в м/с - средняя за 10 мин, порывы в срок и между сроками (в фигурных скобках) и направление, откуда дует ветер: С - северный, СВ - северо-восточный, В - восточный, ЮВ - юго-восточный, Ю - южный, ЮЗ - юго-западный, З - западный, СЗ - северо-западный.
Видимость - горизонтальная дальность видимости в метрах или километрах. При видимости от 1 до 10 км при отсутствии осадков обычно наблюдается дымка, при ухудшении видимости до 1 км и менее - туман. В сухую погоду видимость может ухудшаться дымом, пылью или мглою.
Явления - указаны атмосферные явления, наблюдавшиеся в срок или в последний час перед сроком; фигурными скобками обозначены явления, наблюдавшиеся между сроками (за 1-3 часа до срока); квадратными скобками обозначены град или гололедные отложения с указанием их диаметра в мм.
Облачность - указаны через наклонную черту общая и нижняя облачность в баллах и высота нижней границы облаков в метрах; квадратными скобками обозначены формы облаков: Ci - перистые, Cs - перисто-слоистые, Cc - перисто-кучевые, Ac - высококучевые, As - высокослоистые, Sc - слоисто-кучевые, Ns - слоисто-дождевые, Cu - кучевые, Cb - кучево-дождевые. Подробнее классификацию облаков см. в Атласе облаков (PDF).
T - Температура воздуха - температура, измеренная на высоте 2 м над землей.
Td - Температура точки росы - температура, при понижении до которой содержащийся в воздухе водяной пар достигнет насыщения.
f - Относительная влажность воздуха - влажноcть воздуха, измеренная на высоте 2 м над землей.
Te - Эффективная температура - температура, которую ощущает одетый по сезону человек в тени. Характеристика душности погоды. При расчете учитывается влияние влажности воздуха и скорости ветра на теплоощущения человека.
Tes - Эффективная температура на солнце - температура, которую ощущает человек, с поправкой на солнечный нагрев. Характеристика знойности погоды. Зависит от высоты солнца над горизонтом, облачности и скорости ветра. Ночью, в пасмурную погоду, а также при ветре 12 м/с и более поправка равна нулю.
P - Атмосферное давление - приведенное к уровню моря атмосферное давление.
Po - Атмосферное давление - измеренное на уровне метеостанции атмосферное давление.
Tmin - Минимальная температура - минимум температуры воздуха на высоте 2 м над землей.
Tmax - Максимальная температура - максимум температуры воздуха на высоте 2 м над землей.
R - Количество осадков - Количество выпавших осадков за период времени, мм. При наведении курсора мыши на число - период времени, за который выпало указанное количество осадков.
R24 - Количество осадков - Количество выпавших осадков за 24 часа, мм.
S - Снежный покров - Высота снежного покрова, см. При наведении курсора мыши на число - состояние снежного покрова и степень покрытия местности в баллах.